| time (UTC) | temp C | wind direction | speed KPH | gust KPH | rain 1hr cm | rain 24hr cm | rain mn cm | humidity % | barometer mb |
| 20260502190758 | 20 | 268 | 8.0 | 8.0 | 0.00 | 0.00 | 0.00 | 30 | 1019.9 |
| 20260502185258 | 19 | 120 | 3.2 | 6.4 | 0.00 | 0.00 | 0.00 | 35 | 1020.0 |
| 20260502183754 | 19 | 279 | 1.6 | 9.7 | 0.00 | 0.00 | 0.00 | 35 | 1020.1 |
| 20260502182253 | 19 | 332 | 6.4 | 9.7 | 0.00 | 0.00 | 0.00 | 33 | 1020.3 |
| 20260502180752 | 18 | 31 | 1.6 | 8.0 | 0.00 | 0.00 | 0.00 | 34 | 1020.4 |
| 20260502163731 | 17 | 289 | 9.7 | 9.7 | 0.00 | 0.00 | 0.00 | 36 | 1021.1 |
| 20260502162228 | 17 | 63 | 3.2 | 6.4 | 0.00 | 0.00 | 0.00 | 36 | 1021.1 |
| 20260502160726 | 17 | 320 | 3.2 | 8.0 | 0.00 | 0.00 | 0.00 | 36 | 1021.2 |
| 20260502152223 | 16 | 269 | 3.2 | 4.8 | 0.00 | 0.00 | 0.00 | 41 | 1020.9 |
| 20260502150721 | 16 | 110 | 3.2 | 6.4 | 0.00 | 0.00 | 0.00 | 45 | 1020.9 |
| 20260502130652 | 8 | 98 | 1.6 | 3.2 | 0.00 | 0.00 | 0.00 | 79 | 1020.3 |
| 20260502123647 | 7 | 116 | 0.0 | 3.2 | 0.00 | 0.00 | 0.00 | 86 | 1020.0 |
| 20260502122143 | 7 | 92 | 1.6 | 3.2 | 0.00 | 0.00 | 0.00 | 86 | 1020.0 |
| 20260502120641 | 6 | 280 | 0.0 | 3.2 | 0.00 | 0.00 | 0.00 | 87 | 1019.6 |
| 20260502115137 | 6 | 132 | 0.0 | 3.2 | 0.00 | 0.00 | 0.00 | 89 | 1019.3 |
| 20260502113634 | 6 | 122 | 1.6 | 3.2 | 0.00 | 0.00 | 0.00 | 90 | 1019.4 |
| 20260502112133 | 5 | 115 | 3.2 | 4.8 | 0.00 | 0.00 | 0.00 | 91 | 1019.0 |
| 20260502110631 | 6 | 107 | 0.0 | 3.2 | 0.00 | 0.00 | 0.00 | 91 | 1018.9 |
| 20260502105128 | 6 | 124 | 0.0 | 3.2 | 0.00 | 0.00 | 0.00 | 91 | 1018.6 |
| 20260502103626 | 6 | 142 | 3.2 | 3.2 | 0.00 | 0.00 | 0.00 | 91 | 1018.5 |
| 20260502102123 | 6 | 48 | 0.0 | 3.2 | 0.00 | 0.00 | 0.00 | 91 | 1018.5 |
| 20260502100623 | 6 | 153 | 1.6 | 3.2 | 0.00 | 0.00 | 0.00 | 91 | 1018.4 |
| 20260502090615 | 7 | 119 | 0.0 | 4.8 | 0.00 | 0.00 | 0.00 | 91 | 1018.0 |
| 20260502070553 | 8 | 62 | 0.0 | 3.2 | 0.00 | 0.00 | 0.00 | 84 | 1017.8 |
| 20260502065052 | 8 | 98 | 1.6 | 3.2 | 0.00 | 0.00 | 0.00 | 84 | 1017.8 |
| 20260502063551 | 8 | 95 | 0.0 | 3.2 | 0.00 | 0.00 | 0.00 | 83 | 1017.7 |
| 20260502062049 | 8 | 99 | 1.6 | 3.2 | 0.00 | 0.00 | 0.00 | 85 | 1017.8 |
| 20260502060545 | 8 | 109 | 1.6 | 3.2 | 0.00 | 0.00 | 0.00 | 87 | 1017.8 |
| 20260502055044 | 8 | 119 | 0.0 | 3.2 | 0.00 | 0.00 | 0.00 | 86 | 1018.1 |
| 20260502053541 | 8 | 123 | 1.6 | 3.2 | 0.00 | 0.00 | 0.00 | 88 | 1018.0 |
| 20260502052040 | 8 | 96 | 1.6 | 3.2 | 0.00 | 0.00 | 0.00 | 87 | 1018.0 |
| 20260502050537 | 8 | 93 | 1.6 | 3.2 | 0.00 | 0.00 | 0.00 | 86 | 1017.9 |
| 20260502045034 | 10 | 107 | 1.6 | 3.2 | 0.00 | 0.00 | 0.00 | 81 | 1017.8 |
| 20260502043530 | 10 | 117 | 3.2 | 3.2 | 0.00 | 0.00 | 0.00 | 81 | 1017.7 |
| 20260502042025 | 10 | 124 | 0.0 | 3.2 | 0.00 | 0.00 | 0.00 | 83 | 1017.9 |
| 20260502040522 | 10 | 123 | 1.6 | 3.2 | 0.00 | 0.00 | 0.00 | 79 | 1017.9 |
| 20260502035018 | 11 | 119 | 0.0 | 1.6 | 0.00 | 0.00 | 0.00 | 72 | 1017.9 |
| 20260502033518 | 11 | 130 | 0.0 | 1.6 | 0.00 | 0.00 | 0.00 | 75 | 1018.0 |
| 20260502032014 | 10 | 104 | 0.0 | 3.2 | 0.00 | 0.00 | 0.00 | 76 | 1018.0 |
| 20260502030514 | 10 | 114 | 0.0 | 1.6 | 0.00 | 0.00 | 0.00 | 78 | 1018.1 |
| 20260502025012 | 10 | 113 | 3.2 | 3.2 | 0.00 | 0.00 | 0.00 | 76 | 1018.0 |
| 20260502023511 | 11 | 111 | 3.2 | 3.2 | 0.00 | 0.00 | 0.00 | 68 | 1017.8 |
| 20260502022008 | 11 | 105 | 3.2 | 3.2 | 0.00 | 0.00 | 0.00 | 65 | 1017.5 |
| 20260502020506 | 11 | 107 | 3.2 | 3.2 | 0.00 | 0.00 | 0.00 | 68 | 1017.5 |
| 20260502015002 | 12 | 101 | 0.0 | 3.2 | 0.00 | 0.00 | 0.00 | 62 | 1017.3 |
| 20260502013457 | 12 | 117 | 1.6 | 1.6 | 0.00 | 0.00 | 0.00 | 54 | 1017.1 |
| 20260502011955 | 13 | 99 | 3.2 | 3.2 | 0.00 | 0.00 | 0.00 | 58 | 1016.9 |
| 20260502010450 | 14 | 116 | 3.2 | 3.2 | 0.00 | 0.00 | 0.00 | 54 | 1016.7 |
| 20260502004948 | 15 | 112 | 1.6 | 3.2 | 0.00 | 0.00 | 0.00 | 51 | 1016.5 |
| 20260502003443 | 17 | 106 | 1.6 | 3.2 | 0.00 | 0.00 | 0.00 | 46 | 1016.4 |
| 20260502001940 | 20 | 100 | 1.6 | 4.8 | 0.00 | 0.00 | 0.00 | 35 | 1016.2 |
| 20260502000439 | 21 | 36 | 0.0 | 3.2 | 0.00 | 0.00 | 0.00 | 31 | 1016.0 |
| 20260501234938 | 21 | 113 | 0.0 | 3.2 | 0.00 | 0.00 | 0.00 | 34 | 1016.3 |
| 20260501233436 | 21 | 216 | 3.2 | 3.2 | 0.00 | 0.00 | 0.00 | 27 | 1016.3 |
| 20260501231932 | 21 | 13 | 3.2 | 6.4 | 0.00 | 0.00 | 0.00 | 27 | 1016.0 |
| 20260501230427 | 21 | 79 | 3.2 | 9.7 | 0.00 | 0.00 | 0.00 | 27 | 1016.0 |
| 20260501224923 | 21 | 138 | 0.0 | 4.8 | 0.00 | 0.00 | 0.00 | 31 | 1016.0 |
| 20260501223420 | 21 | 114 | 3.2 | 6.4 | 0.00 | 0.00 | 0.00 | 28 | 1016.0 |
| 20260501221915 | 22 | 120 | 0.0 | 3.2 | 0.00 | 0.00 | 0.00 | 33 | 1015.9 |
| 20260501220414 | 22 | 62 | 1.6 | 6.4 | 0.00 | 0.00 | 0.00 | 28 | 1016.1 |
| 20260501214913 | 22 | 307 | 3.2 | 6.4 | 0.00 | 0.00 | 0.00 | 28 | 1016.2 |
| 20260501213413 | 22 | 52 | 3.2 | 6.4 | 0.00 | 0.00 | 0.00 | 28 | 1016.4 |
| 20260501211908 | 22 | 3 | 3.2 | 9.7 | 0.00 | 0.00 | 0.00 | 28 | 1016.5 |
| 20260501210406 | 21 | 10 | 3.2 | 4.8 | 0.00 | 0.00 | 0.00 | 28 | 1016.8 |
| 20260501204902 | 21 | 357 | 0.0 | 8.0 | 0.00 | 0.00 | 0.00 | 29 | 1017.1 |
| 20260501203357 | 22 | 122 | 3.2 | 6.4 | 0.00 | 0.00 | 0.00 | 25 | 1017.5 |
| 20260501201854 | 21 | 320 | 0.0 | 3.2 | 0.00 | 0.00 | 0.00 | 31 | 1017.9 |
| 20260501200350 | 20 | 0 | 6.4 | 6.4 | 0.00 | 0.00 | 0.00 | 28 | 1018.0 |
| 20260501194846 | 20 | 327 | 1.6 | 8.0 | 0.00 | 0.00 | 0.00 | 30 | 1018.2 |
| 20260501193343 | 21 | 327 | 1.6 | 6.4 | 0.00 | 0.00 | 0.00 | 26 | 1018.8 |
| 20260501191839 | 20 | 290 | 1.6 | 1.6 | 0.00 | 0.00 | 0.00 | 35 | 1018.5 |